Location: Sternwarte ZA, Rosenfeld-Brittheim
(48.2889°N, 8.6789°E)
Time: 16:37:22
(UTC+02:00)

ISS - Pass Details

Date: 23 May 2017
Orbit: 401 x 407 km, 51.6° (Epoch: 23 September)

Event Time Altitude Azimuth Distance (km) Brightness Sun altitude
Exits shadow 01:23:57 18° 277° (W) 1,116 -1.6 -21.1°
Drops below altitude 10° 01:29:32 10° 68° (ENE) 1,488 -0.7 -21.1°
Enters shadow 02:47:04 -27° 278° (W) 6,580 2.3 -18.5°
Maximum altitude 03:03:11 51° 10° (N) 531 -2.9 -17.5°
